TAM3057 SBCT-SBSP

Flight info

Callsign TAM3057
Flight time 0h 38m
Altitude 27000
Route EDVEB UM548 DOSMU DCT ANISE
Aircraft A320/M-SDE3FGHIRWY/LB1

Departure

Time 2026-05-05 14:39
Airport Curitiba-Afonso Pena International Airport (SBCT)

Arrival

Time 2026-05-05 15:17
Airport Congonhas–Deputado Freitas Nobre Airport (SBSP)
Time Latitude Longitude Altitude Speed Heading
2026-05-05 14:13 -25.53664 -49.17113 2996 ft 0 kts 225°
2026-05-05 14:30 -25.53654 -49.17103 2996 ft 3 kts 227°
2026-05-05 14:30 -25.53639 -49.17084 2996 ft 3 kts 237°
2026-05-05 14:30 -25.53630 -49.17062 2996 ft 3 kts 263°
2026-05-05 14:30 -25.53632 -49.17043 2996 ft 2 kts 314°
2026-05-05 14:31 -25.53647 -49.17026 2996 ft 3 kts 314°
2026-05-05 14:31 -25.53661 -49.17011 2996 ft 0 kts 314°
2026-05-05 14:33 -25.53656 -49.17017 2996 ft 4 kts 314°
2026-05-05 14:33 -25.53615 -49.17037 2996 ft 10 kts
2026-05-05 14:34 -25.53540 -49.17028 2996 ft 11 kts 313°
2026-05-05 14:34 -25.53472 -49.17104 2996 ft 17 kts 316°
2026-05-05 14:34 -25.53414 -49.17167 2996 ft 18 kts 315°
2026-05-05 14:34 -25.53322 -49.17271 2996 ft 13 kts 314°
2026-05-05 14:35 -25.53255 -49.17347 2996 ft 15 kts 314°
2026-05-05 14:35 -25.53149 -49.17464 2996 ft 18 kts 315°
2026-05-05 14:35 -25.53090 -49.17531 2996 ft 15 kts 314°
2026-05-05 14:35 -25.53025 -49.17604 2996 ft 13 kts 314°
2026-05-05 14:36 -25.52980 -49.17733 2995 ft 15 kts 270°
2026-05-05 14:36 -25.52979 -49.17816 2995 ft 17 kts 272°
2026-05-05 14:36 -25.52924 -49.17926 2995 ft 18 kts 313°
2026-05-05 14:36 -25.52810 -49.17995 2993 ft 20 kts 356°
2026-05-05 14:37 -25.52672 -49.17999 2996 ft 14 kts 359°
2026-05-05 14:37 -25.52603 -49.18000 2996 ft 16 kts 359°
2026-05-05 14:37 -25.52496 -49.18014 2996 ft 12 kts 351°
2026-05-05 14:37 -25.52479 -49.17991 2996 ft 2 kts 135°
2026-05-05 14:38 -25.52479 -49.17990 2996 ft 0 kts 135°
2026-05-05 14:38 -25.52542 -49.17922 2996 ft 48 kts 135°
2026-05-05 14:38 -25.52996 -49.17411 2997 ft 133 kts 134°
2026-05-05 14:38 -25.53770 -49.16534 3319 ft 172 kts 134°
2026-05-05 14:39 -25.54623 -49.15567 4034 ft 181 kts 134°
2026-05-05 14:39 -25.55335 -49.14345 4418 ft 202 kts 102°
2026-05-05 14:39 -25.55408 -49.12714 4740 ft 225 kts 83°
2026-05-05 14:39 -25.55221 -49.10897 5164 ft 249 kts 79°
2026-05-05 14:40 -25.54963 -49.08909 5623 ft 274 kts 79°
2026-05-05 14:40 -25.54699 -49.06725 6368 ft 287 kts 81°
2026-05-05 14:40 -25.54476 -49.04532 7232 ft 293 kts 83°
2026-05-05 14:40 -25.54283 -49.02267 8180 ft 297 kts 84°
2026-05-05 14:41 -25.54110 -48.99942 9141 ft 301 kts 85°
2026-05-05 14:41 -25.53952 -48.97649 10072 ft 305 kts 86°
2026-05-05 14:41 -25.53790 -48.95232 10527 ft 327 kts 86°
2026-05-05 14:41 -25.53569 -48.92668 11045 ft 340 kts 80°
2026-05-05 14:42 -25.53036 -48.90099 11827 ft 345 kts 76°
2026-05-05 14:42 -25.52464 -48.87498 12640 ft 350 kts 77°
2026-05-05 14:42 -25.51886 -48.84864 13448 ft 354 kts 77°
2026-05-05 14:42 -25.51303 -48.82204 14221 ft 358 kts 77°
2026-05-05 14:43 -25.50711 -48.79510 14879 ft 362 kts 77°
2026-05-05 14:43 -25.50112 -48.76784 15539 ft 367 kts 77°
2026-05-05 14:43 -25.49506 -48.74022 16173 ft 372 kts 77°
2026-05-05 14:43 -25.48893 -48.71221 16800 ft 377 kts 77°
2026-05-05 14:44 -25.48271 -48.68383 17409 ft 382 kts 78°
2026-05-05 14:44 -25.47640 -48.65510 18032 ft 387 kts 78°
2026-05-05 14:44 -25.46999 -48.62602 18634 ft 391 kts 78°
2026-05-05 14:44 -25.46349 -48.59660 19183 ft 395 kts 78°
2026-05-05 14:45 -25.45694 -48.56700 19744 ft 398 kts 77°
2026-05-05 14:45 -25.45030 -48.53712 20305 ft 402 kts 77°
2026-05-05 14:45 -25.44359 -48.50699 20867 ft 405 kts 77°
2026-05-05 14:45 -25.43683 -48.47658 21429 ft 408 kts 77°
2026-05-05 14:46 -25.43008 -48.44639 21972 ft 412 kts 77°
2026-05-05 14:46 -25.42318 -48.41551 22534 ft 414 kts 77°
2026-05-05 14:46 -25.41623 -48.38446 23088 ft 417 kts 77°
2026-05-05 14:46 -25.40925 -48.35315 23632 ft 421 kts 77°
2026-05-05 14:47 -25.40221 -48.32162 24102 ft 424 kts 76°
2026-05-05 14:47 -25.39511 -48.28981 24537 ft 428 kts 77°
2026-05-05 14:47 -25.38794 -48.25776 24968 ft 431 kts 77°
2026-05-05 14:47 -25.38071 -48.22544 25397 ft 435 kts 77°
2026-05-05 14:48 -25.37341 -48.19289 25834 ft 438 kts 77°
2026-05-05 14:48 -25.36605 -48.16014 26250 ft 441 kts 77°
2026-05-05 14:48 -25.35858 -48.12704 26664 ft 445 kts 77°
2026-05-05 14:48 -25.35108 -48.09376 27051 ft 448 kts 77°
2026-05-05 14:49 -25.34355 -48.06024 27173 ft 447 kts 77°
2026-05-05 14:49 -25.33619 -48.02759 27195 ft 430 kts 77°
2026-05-05 14:49 -25.32898 -47.99581 27198 ft 423 kts 77°
2026-05-05 14:49 -25.32200 -47.96434 27195 ft 421 kts 78°
2026-05-05 14:50 -25.31583 -47.93273 27193 ft 420 kts 80°
2026-05-05 14:50 -25.31024 -47.90107 27193 ft 419 kts 81°
2026-05-05 14:50 -25.30492 -47.86941 27193 ft 419 kts 81°
2026-05-05 14:50 -25.29964 -47.83770 27193 ft 419 kts 81°
2026-05-05 14:51 -25.29427 -47.80606 27193 ft 419 kts 81°
2026-05-05 14:51 -25.28874 -47.77438 27193 ft 419 kts 81°
2026-05-05 14:51 -25.28309 -47.74283 27192 ft 419 kts 80°
2026-05-05 14:51 -25.27737 -47.71133 27189 ft 418 kts 80°
2026-05-05 14:52 -25.27161 -47.67981 27189 ft 418 kts 80°
2026-05-05 14:52 -25.26589 -47.64834 27187 ft 418 kts 80°
2026-05-05 14:52 -25.26018 -47.61686 27186 ft 418 kts 80°
2026-05-05 14:52 -25.25451 -47.58574 27184 ft 418 kts 80°
2026-05-05 14:53 -25.24878 -47.55426 27185 ft 418 kts 80°
2026-05-05 14:53 -25.24308 -47.52279 27186 ft 418 kts 80°
2026-05-05 14:53 -25.23725 -47.49131 27187 ft 418 kts 78°
2026-05-05 14:53 -25.22808 -47.46082 27188 ft 420 kts 67°
2026-05-05 14:54 -25.21408 -47.43250 27189 ft 420 kts 56°
2026-05-05 14:54 -25.19614 -47.40705 27187 ft 420 kts 50°
2026-05-05 14:54 -25.17739 -47.38225 27188 ft 421 kts 50°
2026-05-05 14:54 -25.15864 -47.35745 27190 ft 421 kts 50°
2026-05-05 14:55 -25.13991 -47.33265 27191 ft 421 kts 50°
2026-05-05 14:55 -25.12118 -47.30783 27192 ft 420 kts 50°
2026-05-05 14:55 -25.10247 -47.28299 27193 ft 420 kts 50°
2026-05-05 14:55 -25.08377 -47.25824 27193 ft 420 kts 50°
2026-05-05 14:56 -25.06506 -47.23348 27193 ft 420 kts 50°
2026-05-05 14:56 -25.04636 -47.20874 27192 ft 420 kts 50°
2026-05-05 14:56 -25.02765 -47.18402 27191 ft 420 kts 50°
2026-05-05 14:56 -25.00893 -47.15930 27188 ft 420 kts 50°
2026-05-05 14:57 -24.99024 -47.13460 27189 ft 419 kts 50°
2026-05-05 14:57 -24.97153 -47.10990 27189 ft 419 kts 50°
2026-05-05 14:57 -24.95310 -47.08562 27156 ft 419 kts 50°
2026-05-05 14:57 -24.93452 -47.06113 26731 ft 415 kts 50°
2026-05-05 14:58 -24.91606 -47.03685 26245 ft 411 kts 50°
2026-05-05 14:58 -24.89772 -47.01278 25745 ft 409 kts 50°
2026-05-05 14:58 -24.87951 -46.98889 25243 ft 406 kts 50°
2026-05-05 14:58 -24.86143 -46.96510 24727 ft 405 kts 50°
2026-05-05 14:59 -24.84337 -46.94131 24199 ft 403 kts 50°
2026-05-05 14:59 -24.82538 -46.91764 23642 ft 402 kts 50°
2026-05-05 14:59 -24.80743 -46.89408 23071 ft 400 kts 51°
2026-05-05 14:59 -24.78961 -46.87070 22543 ft 397 kts 51°
2026-05-05 15:00 -24.77190 -46.84747 22025 ft 395 kts 50°
2026-05-05 15:00 -24.76025 -46.83222 21697 ft 393 kts 50°
2026-05-05 15:00 -24.73679 -46.80151 21022 ft 390 kts 51°
2026-05-05 15:00 -24.71935 -46.77867 20517 ft 389 kts 51°
2026-05-05 15:01 -24.70201 -46.75593 20014 ft 387 kts 51°
2026-05-05 15:01 -24.68478 -46.73333 19588 ft 384 kts 51°
2026-05-05 15:01 -24.66764 -46.71092 19162 ft 381 kts 51°
2026-05-05 15:01 -24.65060 -46.68869 18622 ft 377 kts 51°
2026-05-05 15:02 -24.63392 -46.66696 18016 ft 366 kts 50°
2026-05-05 15:02 -24.61604 -46.64747 17566 ft 361 kts 37°
2026-05-05 15:02 -24.59446 -46.63361 17111 ft 359 kts 22°
2026-05-05 15:02 -24.57089 -46.62647 16759 ft 354 kts
2026-05-05 15:03 -24.54642 -46.62535 16411 ft 350 kts 359°
2026-05-05 15:03 -24.52222 -46.62540 16063 ft 346 kts 359°
2026-05-05 15:03 -24.49824 -46.62545 15713 ft 343 kts 359°
2026-05-05 15:03 -24.47446 -46.62551 15370 ft 340 kts 359°
2026-05-05 15:04 -24.45087 -46.62555 15027 ft 338 kts 360°
2026-05-05 15:04 -24.42746 -46.62556 14682 ft 335 kts 360°
2026-05-05 15:04 -24.40421 -46.62555 14349 ft 333 kts 360°
2026-05-05 15:04 -24.38112 -46.62556 14024 ft 330 kts 360°
2026-05-05 15:05 -24.33576 -46.62566 13396 ft 322 kts 359°
2026-05-05 15:05 -24.31347 -46.62568 13106 ft 318 kts 360°
2026-05-05 15:05 -24.29140 -46.62568 12817 ft 317 kts 360°
2026-05-05 15:06 -24.26939 -46.62568 12530 ft 315 kts 359°
2026-05-05 15:06 -24.24751 -46.62571 12233 ft 314 kts 359°
2026-05-05 15:06 -24.22589 -46.62574 11952 ft 314 kts 359°
2026-05-05 15:06 -24.20413 -46.62577 11664 ft 312 kts 359°
2026-05-05 15:07 -24.18240 -46.62579 11378 ft 311 kts 359°
2026-05-05 15:07 -24.16070 -46.62578 11093 ft 311 kts 359°
2026-05-05 15:07 -24.13909 -46.62577 10805 ft 310 kts 359°
2026-05-05 15:07 -24.11763 -46.62578 10526 ft 308 kts 359°
2026-05-05 15:08 -24.09636 -46.62580 10248 ft 303 kts 359°
2026-05-05 15:08 -24.07538 -46.62582 9878 ft 302 kts 359°
2026-05-05 15:08 -24.05421 -46.62584 9442 ft 302 kts 359°
2026-05-05 15:08 -24.03331 -46.62584 9106 ft 298 kts 359°
2026-05-05 15:09 -24.01276 -46.62585 8820 ft 294 kts 359°
2026-05-05 15:09 -23.99238 -46.62585 8551 ft 292 kts 359°
2026-05-05 15:09 -23.97212 -46.62588 8287 ft 290 kts 359°
2026-05-05 15:09 -23.95206 -46.62591 8022 ft 285 kts 359°
2026-05-05 15:10 -23.93247 -46.62592 7768 ft 278 kts 359°
2026-05-05 15:10 -23.91358 -46.62591 7667 ft 265 kts 359°
2026-05-05 15:10 -23.89559 -46.62589 7604 ft 253 kts 359°
2026-05-05 15:10 -23.87838 -46.62586 7495 ft 242 kts
2026-05-05 15:11 -23.86237 -46.62271 7397 ft 234 kts 20°
2026-05-05 15:11 -23.84850 -46.61383 7169 ft 233 kts 40°
2026-05-05 15:11 -23.83767 -46.60029 6765 ft 241 kts 51°
2026-05-05 15:11 -23.82720 -46.58574 6410 ft 244 kts 51°
2026-05-05 15:12 -23.81660 -46.57183 6251 ft 236 kts 42°
2026-05-05 15:12 -23.80342 -46.56201 6036 ft 222 kts 22°
2026-05-05 15:12 -23.78922 -46.55769 5906 ft 204 kts
2026-05-05 15:12 -23.77547 -46.55806 5713 ft 194 kts 348°
2026-05-05 15:13 -23.76295 -46.56244 5507 ft 186 kts 333°
2026-05-05 15:13 -23.75208 -46.56960 5284 ft 180 kts 326°
2026-05-05 15:13 -23.74164 -46.57682 5073 ft 176 kts 327°
2026-05-05 15:13 -23.73125 -46.58402 4845 ft 177 kts 327°
2026-05-05 15:14 -23.72125 -46.59094 4634 ft 164 kts 327°
2026-05-05 15:14 -23.71202 -46.59733 4430 ft 151 kts 327°
2026-05-05 15:14 -23.70347 -46.60326 4237 ft 142 kts 326°
2026-05-05 15:14 -23.69530 -46.60892 4065 ft 138 kts 326°
2026-05-05 15:15 -23.68724 -46.61451 3885 ft 138 kts 327°
2026-05-05 15:15 -23.67918 -46.62009 3720 ft 137 kts 326°
2026-05-05 15:15 -23.67121 -46.62561 3544 ft 138 kts 326°
2026-05-05 15:15 -23.66312 -46.63122 3357 ft 138 kts 326°
2026-05-05 15:16 -23.65501 -46.63683 3171 ft 139 kts 327°
2026-05-05 15:16 -23.64686 -46.64247 2984 ft 139 kts 327°
2026-05-05 15:16 -23.63865 -46.64816 2770 ft 140 kts 327°
2026-05-05 15:16 -23.63049 -46.65380 2613 ft 130 kts 328°
2026-05-05 15:17 -23.62522 -46.65746 2604 ft 62 kts 327°
2026-05-05 15:17 -23.62270 -46.65920 2600 ft 22 kts 328°
2026-05-05 15:17 -23.62195 -46.66022 2599 ft 17 kts 272°
2026-05-05 15:17 -23.62221 -46.66046 2599 ft 5 kts 176°
2026-05-05 15:18 -23.62267 -46.66030 2600 ft 10 kts 148°
2026-05-05 15:18 -23.62328 -46.65987 2600 ft 10 kts 147°
2026-05-05 15:18 -23.62383 -46.65949 2601 ft 8 kts 147°
2026-05-05 15:18 -23.62427 -46.65919 2601 ft 7 kts 148°
2026-05-05 15:19 -23.62461 -46.65895 2601 ft 5 kts 148°
2026-05-05 15:19 -23.62485 -46.65879 2602 ft 3 kts 148°
2026-05-05 15:19 -23.62513 -46.65861 2602 ft 6 kts 149°
2026-05-05 15:19 -23.62559 -46.65836 2602 ft 7 kts 187°
2026-05-05 15:20 -23.62583 -46.65878 2601 ft 7 kts 239°
2026-05-05 15:20 -23.62596 -46.65899 2601 ft 2 kts 238°
2026-05-05 15:20 -23.62599 -46.65905 2601 ft 0 kts 237°
2026-05-05 15:20 -23.62600 -46.65906 2601 ft 0 kts 237°